Regional Weather Roundup
Issued by NWS

Current Version | Previous Version | Text Only | Print | Product List | Glossary On
Versions: 1 2 3 4 5 6 7 8 9 10 11 12 13 14 15 16 17 18 19 20 21 22 23 24 25 26 27 28 29 30 31 32 33 34 35 36 37 38 39 40 41 42 43 44 45 46 47 48 49 50
000
ASUS44 KMEG 261310
RWRTN
TENNESSEE HOURLY STATE WEATHER ROUNDUP
NATIONAL WEATHER SERVICE MEMPHIS TN
800 AM CDT SUN APR 26 2015

TNZ002-004-019-021-049-052-054-088>092-261400-
WEST TENNESSEE

CITY           SKY/WX    TMP DP  RH WIND       PRES   REMARKS
MEMPHIS INTL   PTSUNNY   64  58  80 N9        29.77R
NWS MEMPHIS      N/A     62 N/A N/A MISG        N/A
JACKSON        CLOUDY    60  55  83 N12       29.77R
DYERSBURG      CLOUDY    55  43  62 N10G16    29.81R
UNION CITY     CLOUDY    52  32  46 N10       29.80R
PARIS          CLOUDY    48  48 100 N9        29.79R
LEXINGTON      CLOUDY    59  55  88 N9        29.74R
SAVANNAH       SUNNY     63  32  31 N8        29.75R
$$

TNZ008-025-027-028-033-062-065-066-261400-
NORTH MIDDLE TENNESSEE

CITY           SKY/WX    TMP DP  RH WIND       PRES   REMARKS
NASHVILLE      CLOUDY    54  51  90 N10       29.75R
CLARKSVILLE    CLOUDY    50  49  96 N13       29.78R FOG
SMYRNA         CLOUDY    56  54  93 N9        29.75R
COOKEVILLE     CLOUDY    55  55 100 CALM      29.71R
CROSSVILLE     CLOUDY    59  55  87 W6        29.70R
$$

TNZ061-075-076-078-094-096-097-261400-
SOUTH MIDDLE TENNESSEE

CITY           SKY/WX    TMP DP  RH WIND       PRES   REMARKS
FAYETTEVILLE   SUNNY     61  57  88 N6        29.72R
TULLAHOMA      CLOUDY    57  57 100 NW5       29.73R
WINCHESTER     SUNNY     63  59  88 NW6       29.72R
MCMINNVILLE    PTSUNNY   61  61 100 W5        29.71R
COLUMBIA       CLOUDY    61  32  33 NW5       29.71R
SHELBYVILLE    CLOUDY    63  61  94 NW3       29.73R
$$

TNZ017-018-042-046-047-261400-
NORTHEAST TENNESSEE

CITY           SKY/WX    TMP DP  RH WIND       PRES   REMARKS
TRI CITIES     CLOUDY    61  57  87 W8        29.64R
ELIZABETHTON   CLOUDY    59  55  88 SW7       29.63R
$$

TNZ012-013-036-069-073-074-261400-
CENTRAL EAST TENNESSEE

CITY           SKY/WX    TMP DP  RH WIND       PRES   REMARKS
KNOXVILLE      PTSUNNY   62  57  83 SW10      29.66R
OAK RIDGE      CLOUDY    62  58  86 VRB5      29.69R
GATLINBURG     CLOUDY    61  55  82 SW5       29.66R
MORRISTOWN     SUNNY     63  61  94 W8        29.66R
$$

TNZ083-085-099-261400-
SOUTHEAST TENNESSEE

CITY           SKY/WX    TMP DP  RH WIND       PRES   REMARKS
CHATTANOOGA    MOSUNNY   66  62  87 CALM      29.69R
$$

SKY/WX REPORTED AS FAIR MEANS FEW OR NO CLOUDS BELOW
12 THOUSAND FEET.



USA.gov is the U.S. government's official web portal to all federal, state and local government web resources and services.